Zurück zum Katalog

JILIN-01 KUANFU 02B 2

AktivWissenschaftSSO
NORAD 61190·PAYLOAD·🇨🇳 China

Gestartet Sep 20, 2024 von Taiyuan Satellite Launch Center

Loading…

Nächste Überflüge (nächste 24 Stunden)

TLE

AktuellSource: Space-Track

Epoche: Sep 14, 2026, 13:00 UTC

1 61190U 24169B   26257.54212826  .00003009  00000-0  19231-3 0  9992
2 61190  97.5539 345.0895 0007735  74.0987 286.1094 15.09367884109302

Verfolge JILIN-01 KUANFU 02B 2 in Echtzeit mit AllMySat

Download on the App Store